• In Hungary
  • List of Countries
  • For 7 days
  • Water Temperature
  • Satellite Maps
  • Weather Map
  • News
  • Weather Widgets
  • user-avatar
    Login

    Hourly Weather Ganino

    Today, 27 May, Sunday

    Time Temperature Precipitation Wind Pressure Humidity
    00:00 +13°C° 0 mm 2 mps 756 mmHg 75%
    01:00 +12°C° 0 mm 2 mps 756 mmHg 76%
    02:00 +12°C° 0 mm 2 mps 756 mmHg 77%
    03:00 +12°C° 0 mm 3 mps 755 mmHg 76%
    04:00 +12°C° 0 mm 3 mps 755 mmHg 75%
    05:00 +13°C° 0 mm 3 mps 755 mmHg 75%
    06:00 +15°C° 0 mm 4 mps 755 mmHg 70%
    07:00 +18°C° 0 mm 4 mps 754 mmHg 65%
    08:00 +20°C° 0 mm 4 mps 754 mmHg 60%
    09:00 +21°C° 0 mm 4 mps 753 mmHg 56%
    10:00 +22°C° 0 mm 5 mps 753 mmHg 52%
    11:00 +25°C° 0 mm 5 mps 753 mmHg 48%
    12:00 +25°C° 0 mm 5 mps 753 mmHg 48%
    13:00 +25°C° 0 mm 4 mps 752 mmHg 48%
    14:00 +25°C° 0 mm 4 mps 752 mmHg 48%
    15:00 +23°C° 0.1 mm 4 mps 752 mmHg 47%
    16:00 +22°C° 0.1 mm 4 mps 752 mmHg 47%
    17:00 +22°C° 0.1 mm 4 mps 752 mmHg 46%
    18:00 +19°C° 0 mm 4 mps 752 mmHg 49%
    19:00 +17°C° 0 mm 3 mps 753 mmHg 51%
    20:00 +14°C° 0 mm 3 mps 754 mmHg 53%
    21:00 +13°C° 0 mm 3 mps 754 mmHg 51%
    22:00 +12°C° 0 mm 2 mps 755 mmHg 50%
    23:00 +10°C° 0 mm 2 mps 756 mmHg 49%

    Tomorrow, 28 May, Monday

    Time Temperature Precipitation Wind Pressure Humidity
    00:00 +9°C° 0 mm 2 mps 756 mmHg 51%
    01:00 +8°C° 0 mm 2 mps 757 mmHg 52%
    02:00 +7°C° 0 mm 2 mps 758 mmHg 54%
    03:00 +7°C° 0 mm 2 mps 758 mmHg 54%
    04:00 +8°C° 0 mm 2 mps 759 mmHg 54%
    05:00 +8°C° 0 mm 2 mps 759 mmHg 55%
    06:00 +10°C° 0 mm 2 mps 759 mmHg 48%
    07:00 +13°C° 0 mm 2 mps 759 mmHg 42%
    08:00 +14°C° 0 mm 2 mps 760 mmHg 35%
    09:00 +16°C° 0 mm 2 mps 760 mmHg 33%
    10:00 +17°C° 0 mm 2 mps 760 mmHg 31%
    11:00 +18°C° 0 mm 2 mps 760 mmHg 28%
    12:00 +19°C° 0 mm 2 mps 759 mmHg 28%
    13:00 +19°C° 0 mm 2 mps 759 mmHg 28%
    14:00 +20°C° 0 mm 2 mps 759 mmHg 28%
    15:00 +20°C° 0 mm 2 mps 759 mmHg 30%
    16:00 +21°C° 0 mm 1 mps 758 mmHg 32%
    17:00 +20°C° 0 mm 1 mps 758 mmHg 34%
    18:00 +18°C° 0 mm 1 mps 758 mmHg 41%
    19:00 +15°C° 0 mm 1 mps 758 mmHg 48%
    20:00 +12°C° 0 mm 0 mps 758 mmHg 55%
    21:00 +12°C° 0 mm 1 mps 758 mmHg 56%
    22:00 +12°C° 0 mm 1 mps 758 mmHg 57%
    23:00 +11°C° 0 mm 1 mps 758 mmHg 58%

    Day after tomorrow, 29 May, Tuesday

    Time Temperature Precipitation Wind Pressure Humidity
    00:00 +10°C° 0 mm 1 mps 758 mmHg 60%
    01:00 +10°C° 0 mm 1 mps 758 mmHg 61%
    02:00 +9°C° 0 mm 2 mps 758 mmHg 62%
    03:00 +9°C° 0 mm 2 mps 758 mmHg 62%
    04:00 +10°C° 0 mm 2 mps 758 mmHg 62%
    05:00 +10°C° 0 mm 2 mps 758 mmHg 62%
    06:00 +14°C° 0 mm 2 mps 757 mmHg 56%
    07:00 +16°C° 0 mm 3 mps 757 mmHg 50%
    08:00 +18°C° 0 mm 3 mps 757 mmHg 44%
    09:00 +20°C° 0 mm 3 mps 756 mmHg 40%
    10:00 +21°C° 0 mm 3 mps 755 mmHg 37%
    11:00 +22°C° 0 mm 3 mps 755 mmHg 34%
    12:00 +24°C° 0 mm 3 mps 754 mmHg 33%
    13:00 +23°C° 0 mm 4 mps 753 mmHg 33%
    14:00 +25°C° 0 mm 4 mps 753 mmHg 32%
    15:00 +25°C° 0 mm 4 mps 752 mmHg 36%
    16:00 +25°C° 0 mm 4 mps 751 mmHg 39%
    17:00 +24°C° 0 mm 3 mps 751 mmHg 43%
    18:00 +21°C° 0 mm 3 mps 750 mmHg 53%
    19:00 +19°C° 0 mm 2 mps 750 mmHg 62%
    20:00 +18°C° 0 mm 2 mps 749 mmHg 72%
    21:00 +17°C° 0 mm 2 mps 749 mmHg 75%
    22:00 +16°C° 0 mm 2 mps 748 mmHg 78%
    23:00 +14°C° 0 mm 3 mps 748 mmHg 81%

    30 May, Wednesday

    Time Temperature Precipitation Wind Pressure Humidity
    00:00 +14°C° 0 mm 3 mps 748 mmHg 79%
    01:00 +14°C° 0 mm 3 mps 747 mmHg 78%
    02:00 +13°C° 0 mm 3 mps 747 mmHg 77%
    03:00 +14°C° 0 mm 3 mps 746 mmHg 76%
    04:00 +15°C° 0 mm 4 mps 746 mmHg 75%
    05:00 +17°C° 0 mm 4 mps 745 mmHg 74%
    06:00 +17°C° 0 mm 5 mps 745 mmHg 68%
    07:00 +20°C° 0 mm 6 mps 744 mmHg 61%
    08:00 +21°C° 0 mm 6 mps 743 mmHg 55%
    09:00 +22°C° 0 mm 7 mps 743 mmHg 52%
    10:00 +23°C° 0 mm 7 mps 743 mmHg 50%
    11:00 +24°C° 0 mm 7 mps 742 mmHg 47%
    12:00 +23°C° 0.1 mm 7 mps 742 mmHg 45%
    13:00 +23°C° 0.1 mm 7 mps 743 mmHg 43%
    14:00 +22°C° 0.1 mm 7 mps 743 mmHg 41%
    15:00 +21°C° 0 mm 6 mps 743 mmHg 40%
    16:00 +21°C° 0 mm 5 mps 743 mmHg 38%
    17:00 +20°C° 0 mm 5 mps 743 mmHg 37%
    18:00 +18°C° 0 mm 4 mps 743 mmHg 43%
    19:00 +16°C° 0 mm 3 mps 743 mmHg 49%
    20:00 +13°C° 0 mm 3 mps 743 mmHg 55%
    21:00 +12°C° 0 mm 3 mps 744 mmHg 59%
    22:00 +12°C° 0 mm 2 mps 744 mmHg 62%
    23:00 +10°C° 0 mm 2 mps 744 mmHg 66%

    31 May, Thursday

    Time Temperature Precipitation Wind Pressure Humidity
    00:00 +9°C° 0 mm 2 mps 745 mmHg 69%
    01:00 +8°C° 0 mm 2 mps 745 mmHg 72%
    02:00 +8°C° 0 mm 3 mps 745 mmHg 75%
    03:00 +8°C° 0 mm 3 mps 746 mmHg 71%
    04:00 +7°C° 0 mm 3 mps 746 mmHg 66%
    05:00 +6°C° 0 mm 4 mps 747 mmHg 62%
    06:00 +7°C° 0 mm 4 mps 747 mmHg 55%
    07:00 +8°C° 0 mm 4 mps 747 mmHg 48%
    08:00 +10°C° 0 mm 4 mps 748 mmHg 40%
    09:00 +10°C° 0 mm 4 mps 748 mmHg 36%
    10:00 +11°C° 0 mm 4 mps 748 mmHg 31%
    11:00 +12°C° 0 mm 4 mps 748 mmHg 26%
    12:00 +13°C° 0 mm 4 mps 748 mmHg 26%
    13:00 +13°C° 0 mm 4 mps 748 mmHg 26%
    14:00 +14°C° 0 mm 4 mps 748 mmHg 25%
    15:00 +14°C° 0 mm 4 mps 748 mmHg 27%
    16:00 +13°C° 0 mm 4 mps 748 mmHg 29%
    17:00 +13°C° 0 mm 4 mps 748 mmHg 32%
    18:00 +11°C° 0 mm 3 mps 749 mmHg 39%
    19:00 +10°C° 0 mm 3 mps 749 mmHg 46%
    20:00 +8°C° 0 mm 3 mps 749 mmHg 52%
    21:00 +7°C° 0 mm 3 mps 750 mmHg 55%
    22:00 +5°C° 0 mm 3 mps 750 mmHg 57%
    23:00 +4°C° 0 mm 3 mps 750 mmHg 60%

    1 June, Friday

    Time Temperature Precipitation Wind Pressure Humidity
    00:00 +4°C° 0 mm 2 mps 751 mmHg 63%
    01:00 +3°C° 0 mm 2 mps 751 mmHg 66%
    02:00 +2°C° 0 mm 2 mps 751 mmHg 69%
    03:00 +3°C° 0 mm 2 mps 752 mmHg 66%
    04:00 +2°C° 0 mm 3 mps 752 mmHg 64%
    05:00 +3°C° 0 mm 3 mps 752 mmHg 61%
    06:00 +4°C° 0 mm 3 mps 752 mmHg 55%
    07:00 +7°C° 0 mm 3 mps 752 mmHg 49%
    08:00 +8°C° 0 mm 3 mps 753 mmHg 43%
    09:00 +9°C° 0 mm 3 mps 752 mmHg 41%
    10:00 +10°C° 0 mm 4 mps 752 mmHg 39%
    11:00 +11°C° 0 mm 4 mps 752 mmHg 37%
    12:00 +12°C° 0 mm 4 mps 752 mmHg 35%
    13:00 +12°C° 0 mm 4 mps 752 mmHg 34%
    14:00 +13°C° 0 mm 4 mps 751 mmHg 32%
    15:00 +13°C° 0 mm 4 mps 751 mmHg 33%
    16:00 +13°C° 0 mm 3 mps 751 mmHg 33%
    17:00 +13°C° 0 mm 3 mps 751 mmHg 34%
    18:00 +11°C° 0 mm 3 mps 751 mmHg 41%
    19:00 +10°C° 0 mm 2 mps 751 mmHg 47%
    20:00 +10°C° 0 mm 1 mps 751 mmHg 53%
    21:00 +8°C° 0 mm 1 mps 752 mmHg 57%
    22:00 +7°C° 0 mm 1 mps 752 mmHg 60%
    23:00 +5°C° 0 mm 1 mps 752 mmHg 64%
    Show more